Location: Newark
(50.0306°N, 2.3272°E)
Time: 10:28:26
(UTC+00:00)

Transit 2A Rocket - Pass Details

Date: 08 December 2019
Orbit: 593 x 910 km, 66.7° (Epoch: 23 January)

Event Time Altitude Azimuth Distance (km) Brightness Sun altitude
Rises 22:52:25 0° 326° (NW) 2,843 - -61.0°
Reaches altitude 10° 22:55:27 10° 349° (N) 1,950 - -61.2°
Maximum altitude 22:58:09 16° 28° (NNE) 1,620 - -61.4°
Drops below altitude 10° 23:00:54 10° 66° (ENE) 2,000 - -61.5°
Sets 23:04:04 0° 88° (E) 2,954 - -61.7°
